User: anonymous   Login
Location: Unspecified
(0.0000°N, 0.0000°E)
Time: 13:43:15
(UTC+00:00)
Language:

MUNIN - Orbit

View from above orbital plane
View from above orbital plane
View from above satellite
View from above satellite

Ground track
Ground track

The orbit data is extracted from the following two-line orbital elements,

1 26621U 00075C   17114.79314825 -.00000621 +00000-0 -55483-3 0  9991
2 26621 095.4050 198.4744 0711899 214.3947 140.9092 13.04130591781439
Epoch (UTC): 24 April 2017 19:02:08
Eccentricity: 0.0711899
inclination: 95.4050°
perigee height: 703 km
apogee height: 1789 km
right ascension of ascending node: 198.4744°
argument of perigee: 214.3947°
revolutions per day: 13.04130591
mean anomaly at epoch: 140.9092°
orbit number at epoch: 78143

The dashed part of the orbit path shows where the satellite is in the earth's shadow,  

DLR